[[{"header":{"parameterUnit":"m.s-1","parameterCategory":1,"la1":30.2991,"la2":30.254,"lo1":-89.0895,"lo2":-89.0444,"dy":0.0017,"dx":0.0017,"nx":28,"ny":28,"refTime":"2023-10-18T09:00:00:Z","depth":0,"parameterNumber":2,"parameterNumberName":"U-component_of_WINDS"},"data":[0,0,0,0,0,0,0,0,0,0,0,0,0,0,0,0,0,0,0,0,0,0,0,0,0,0,0,0,0,0,0,0,0,0,0,0,0,0,0,0,0,0,0,0,0,0,0,0,0,0,0,0,0,0,0,0,0,0,-0.5284,-0.5284,0,-0.5304,-0.5304,-0.5304,-0.5321,-0.5321,-0.5321,-0.5321,-0.5342,-0.5343,-0.5343,0,0,0,0,0,0,0,0,0,0,0,0,0,-0.526,-0.5261,-0.5284,-0.5284,-0.5284,-0.5304,-0.5304,-0.5304,-0.5321,-0.5321,-0.5321,-0.5321,-0.5342,-0.5343,-0.5343,0,0,0,0,0,0,0,0,0,0,0,0,0,-0.5274,-0.5261,-0.5284,-0.5295,-0.5296,-0.5304,-0.5304,-0.5304,-0.5321,-0.5321,-0.5321,-0.5321,-0.5342,-0.5343,-0.5343,-0.5342,0,0,-0.5345,-0.5345,0,0,0,0,0,0,0,0,-0.5274,-0.5275,-0.5293,-0.5294,-0.5295,-0.531,-0.5303,-0.5317,-0.5321,-0.5311,-0.5321,-0.5322,-0.5331,-0.5333,-0.5336,-0.5343,-0.5344,-0.5345,-0.5345,-0.5346,-0.5346,0,0,0,0,0,0,0,-0.5273,-0.5274,-0.5292,-0.5293,-0.5295,-0.5299,-0.5301,-0.5306,-0.532,-0.5312,-0.5313,-0.5315,-0.5332,-0.5335,-0.5337,-0.5344,-0.5345,-0.5346,-0.5346,-0.5346,-0.5351,-0.5351,0,0,0,0,0,0,-0.527,-0.5273,-0.5291,-0.5292,-0.5285,-0.5299,-0.5302,-0.5305,-0.532,-0.5322,-0.5315,-0.5316,-0.5334,-0.5336,-0.5338,-0.5337,-0.5346,-0.5346,-0.5347,-0.5351,-0.5351,-0.5351,0,0,0,0,0,0,-0.5269,-0.5271,-0.529,-0.5283,-0.5286,-0.5299,-0.5303,-0.5305,-0.5309,-0.5322,-0.5325,-0.5316,-0.5335,-0.5337,-0.5341,-0.5338,-0.5347,-0.5347,-0.5351,-0.5351,-0.5351,-0.5336,0,0,0,0,0,0,-0.5268,-0.5271,-0.527,-0.5283,-0.5286,-0.5293,-0.5303,-0.5305,-0.531,-0.5311,-0.5324,-0.5326,-0.5335,-0.534,-0.5341,-0.5339,-0.5348,-0.5352,-0.5351,-0.5351,-0.5337,-0.5335,-0.5334,0,0,0,0,0,-0.5268,-0.5265,-0.527,-0.5272,-0.5286,-0.5293,-0.5294,-0.5305,-0.5309,-0.5309,-0.5318,-0.5325,-0.5338,-0.534,-0.5342,-0.534,-0.5352,-0.5351,-0.5351,-0.5337,-0.5335,-0.5334,0,0,0,0,0,0,-0.5252,-0.5267,-0.5273,-0.5275,-0.5282,-0.5295,-0.5295,-0.5302,-0.5309,-0.531,-0.5323,-0.5325,-0.5328,-0.5334,-0.5336,-0.5339,-0.5346,-0.5346,-0.5335,-0.5333,-0.5332,-0.533,-0.5348,0,0,0,0,0,-0.5249,-0.5253,-0.5266,-0.5266,-0.527,-0.5282,-0.5285,-0.5292,-0.5301,-0.5304,-0.5313,-0.5321,-0.5327,-0.533,-0.5337,-0.5338,-0.5341,-0.5337,-0.5336,-0.5334,-0.5334,-0.5336,-0.5334,-0.5349,-0.5349,-0.5349,0,0,-0.5242,-0.5251,-0.5253,-0.5264,-0.527,-0.5274,-0.5284,-0.5288,-0.5292,-0.5305,-0.5309,-0.5316,-0.5326,-0.5328,-0.533,-0.5334,-0.5331,-0.5334,-0.5333,-0.5333,-0.5335,-0.5333,-0.5332,-0.5348,-0.5349,-0.5349,0,0,-0.5233,-0.524,-0.5241,-0.5247,-0.5257,-0.5265,-0.5265,-0.5278,-0.5282,-0.5287,-0.5297,-0.5301,-0.5311,-0.5318,-0.5322,-0.5315,-0.5323,-0.5317,-0.5309,-0.531,-0.5309,-0.5308,-0.5306,-0.5305,-0.5316,-0.5316,-0.5316,0,-0.5223,-0.523,-0.5241,-0.5244,-0.5248,-0.526,-0.5262,-0.5268,-0.5279,-0.5282,-0.5286,-0.5298,-0.5306,-0.531,-0.5309,-0.5312,-0.5313,-0.5315,-0.5308,-0.5307,-0.5307,-0.5305,-0.5304,-0.5315,-0.5316,-0.5316,-0.5316,0,-0.5218,-0.5222,-0.5222,-0.5233,-0.5237,-0.524,-0.5251,-0.5254,-0.5261,-0.5269,-0.5273,-0.5282,-0.5291,-0.5292,-0.5299,-0.5298,-0.53,-0.5306,-0.5313,-0.5304,-0.5303,-0.5302,-0.5314,-0.5315,-0.5315,-0.5315,0,0,-0.52,-0.5216,-0.5216,-0.5221,-0.5233,-0.5236,-0.5239,-0.5247,-0.525,-0.5257,-0.526,-0.5268,-0.5274,-0.5279,-0.5287,-0.5288,-0.5282,-0.5293,-0.5294,-0.5291,-0.5281,-0.5276,-0.5275,-0.5287,-0.5286,-0.5286,-0.528,0,-0.5192,-0.5198,-0.5208,-0.521,-0.5215,-0.5226,-0.5229,-0.5236,-0.5243,-0.5248,-0.5256,-0.5262,-0.5269,-0.5272,-0.5273,-0.5282,-0.528,-0.5282,-0.529,-0.529,-0.5287,-0.5274,-0.527,-0.5263,-0.5279,-0.5279,-0.5279,0,-0.5184,-0.5191,-0.5194,-0.5205,-0.5207,-0.521,-0.5218,-0.5222,-0.5231,-0.5236,-0.5242,-0.525,-0.5254,-0.526,-0.5266,-0.5268,-0.5272,-0.5276,-0.5276,-0.5278,-0.5284,-0.5276,-0.5262,-0.5261,-0.5278,-0.5278,-0.5278,0,-0.5171,-0.518,-0.5183,-0.5187,-0.5201,-0.5202,-0.5208,-0.5217,-0.5221,-0.5228,-0.5231,-0.5239,-0.5243,-0.5248,-0.5259,-0.5262,-0.5264,-0.5271,-0.5268,-0.5268,-0.5268,-0.5268,-0.5255,-0.527,-0.527,-0.527,-0.527,0,-0.5161,-0.5163,-0.5178,-0.518,-0.5182,-0.5193,-0.5195,-0.5202,-0.521,-0.5213,-0.5224,-0.5227,-0.524,-0.5245,-0.5253,-0.5257,-0.5258,-0.5263,-0.5265,-0.5262,-0.5262,-0.5265,-0.5266,-0.527,-0.527,-0.527,-0.527,0,-0.5147,-0.5157,-0.5161,-0.5173,-0.5176,-0.5177,-0.5188,-0.5191,-0.5198,-0.5203,-0.5204,-0.5217,-0.5223,-0.5233,-0.5243,-0.5248,-0.5251,-0.5254,-0.5248,-0.5249,-0.5246,-0.5246,-0.5235,-0.5234,-0.5249,-0.5249,-0.5249,0,-0.5141,-0.5142,-0.5154,-0.5157,-0.5163,-0.5167,-0.5172,-0.5183,-0.5187,-0.5197,-0.5198,-0.5205,-0.5211,-0.5221,-0.5231,-0.5238,-0.5242,-0.5237,-0.5243,-0.524,-0.5242,-0.5242,-0.5242,-0.5236,-0.5236,-0.5236,-0.5236,0,-0.5129,-0.5133,-0.5139,-0.5146,-0.515,-0.5157,-0.5164,-0.5166,-0.5178,-0.5182,-0.5188,-0.5193,-0.5203,-0.521,-0.5218,-0.5225,-0.5232,-0.5234,-0.5234,-0.5231,-0.5227,-0.5229,-0.5244,-0.5234,-0.5234,-0.5234,-0.5234,-0.5234,-0.5118,-0.512,-0.5129,-0.5135,-0.5141,-0.5147,-0.515,-0.5158,-0.5163,-0.5172,-0.5178,-0.5184,-0.5193,-0.5205,-0.5211,-0.5216,-0.5219,-0.5219,-0.5219,-0.5219,-0.5218,-0.5226,-0.5217,-0.5217,-0.5218,-0.5218,-0.5218,0,-0.5107,-0.5113,-0.5118,-0.5127,-0.5132,-0.5138,-0.5146,-0.515,-0.5155,-0.5162,-0.5168,-0.5175,-0.5182,-0.5192,-0.52,-0.5202,-0.5206,-0.5203,-0.5204,-0.5205,-0.5214,-0.5214,-0.52,-0.52,-0.52,-0.52,-0.52,-0.52,-0.5102,-0.5105,-0.5111,-0.5117,-0.5124,-0.5129,-0.5133,-0.5139,-0.5145,-0.5153,-0.5158,-0.5165,-0.5173,-0.5182,-0.5188,-0.5191,-0.5193,-0.519,-0.5194,-0.5203,-0.5204,-0.5206,-0.5205,-0.5191,-0.519,-0.5185,-0.5184,-0.5184]},{"header":{"parameterUnit":"m.s-1","parameterCategory":1,"la1":30.2991,"la2":30.254,"lo1":-89.0895,"lo2":-89.0444,"dy":0.0017,"dx":0.0017,"nx":28,"ny":28,"refTime":"2023-10-18T09:00:00:Z","depth":0,"parameterNumber":3,"parameterNumberName":"V-component_of_WINDS"},"data":[0,0,0,0,0,0,0,0,0,0,0,0,0,0,0,0,0,0,0,0,0,0,0,0,0,0,0,0,0,0,0,0,0,0,0,0,0,0,0,0,0,0,0,0,0,0,0,0,0,0,0,0,0,0,0,0,0,0,3.2067,3.2067,0,3.2064,3.2064,3.2064,3.2009,3.2008,3.2006,3.2005,3.2002,3.2003,3.2005,0,0,0,0,0,0,0,0,0,0,0,0,0,3.2025,3.2026,3.2067,3.2067,3.2067,3.2064,3.2064,3.2064,3.2009,3.2008,3.2006,3.2004,3.2002,3.2003,3.2005,0,0,0,0,0,0,0,0,0,0,0,0,0,3.2035,3.2026,3.2067,3.204,3.2037,3.2064,3.2064,3.2064,3.201,3.2008,3.2006,3.2004,3.2001,3.2003,3.2005,3.2059,0,0,3.201,3.2011,0,0,0,0,0,0,0,0,3.2034,3.2036,3.2044,3.2042,3.2039,3.2035,3.2048,3.2062,3.201,3.202,3.2005,3.2003,3.2015,3.2015,3.2019,3.2058,3.2058,3.2011,3.2012,3.2013,3.2013,0,0,0,0,0,0,0,3.2034,3.2036,3.2066,3.2044,3.2041,3.2027,3.2026,3.2051,3.2029,3.2019,3.2015,3.2016,3.2013,3.2018,3.2019,3.2058,3.2011,3.2012,3.2013,3.2014,3.2139,3.2141,0,0,0,0,0,0,3.2037,3.2036,3.2066,3.2066,3.2031,3.2029,3.2028,3.2038,3.2029,3.2025,3.2017,3.2013,3.2016,3.2017,3.2019,3.2079,3.2013,3.2014,3.2015,3.2137,3.2139,3.2142,0,0,0,0,0,0,3.2036,3.204,3.2066,3.205,3.2052,3.2032,3.2044,3.2039,3.2044,3.2028,3.2023,3.2026,3.2014,3.2016,3.2048,3.2078,3.2015,3.2017,3.2134,3.2137,3.214,3.2201,0,0,0,0,0,0,3.2035,3.204,3.206,3.2051,3.2053,3.2097,3.2046,3.2041,3.2047,3.2042,3.2035,3.2032,3.2013,3.2046,3.205,3.2079,3.2018,3.2131,3.2135,3.2139,3.2196,3.2205,3.2214,0,0,0,0,0,3.2034,3.2078,3.2062,3.2066,3.2078,3.2098,3.21,3.2077,3.205,3.207,3.2059,3.2032,3.2075,3.205,3.2054,3.2084,3.2129,3.2134,3.2139,3.2192,3.2204,3.2214,0,0,0,0,0,0,3.2092,3.2076,3.2058,3.2101,3.2101,3.2089,3.2113,3.2091,3.2099,3.2093,3.2065,3.2064,3.21,3.2096,3.2068,3.2135,3.2097,3.2103,3.2135,3.2147,3.2155,3.2155,3.202,0,0,0,0,0,3.211,3.2128,3.2113,3.2152,3.2153,3.2134,3.2142,3.2124,3.2123,3.2123,3.2115,3.2115,3.2128,3.2138,3.2149,3.2196,3.2192,3.2219,3.2228,3.2235,3.224,3.2262,3.2272,3.2158,3.2158,3.2158,0,0,3.2147,3.2141,3.2154,3.2164,3.2162,3.218,3.2134,3.2156,3.2169,3.2127,3.2155,3.215,3.2148,3.2188,3.2204,3.2185,3.2271,3.2241,3.2247,3.2248,3.2268,3.2279,3.2288,3.2161,3.2161,3.216,0,0,3.2223,3.2221,3.2252,3.2251,3.2249,3.2235,3.2243,3.2234,3.2228,3.2257,3.2225,3.2241,3.2265,3.2264,3.2267,3.2342,3.2317,3.2347,3.2393,3.2415,3.2424,3.2432,3.2456,3.2466,3.2353,3.2353,3.2353,0,3.2269,3.2295,3.2271,3.2294,3.2298,3.2261,3.2291,3.2292,3.2294,3.2298,3.2276,3.2304,3.2301,3.2338,3.2357,3.2361,3.2368,3.2347,3.2425,3.2432,3.2439,3.2462,3.2472,3.2356,3.2356,3.2356,3.2355,0,3.235,3.2369,3.2394,3.2396,3.2404,3.2431,3.241,3.2421,3.2403,3.2391,3.2421,3.2415,3.2424,3.2432,3.2415,3.2467,3.2454,3.243,3.2391,3.2454,3.2475,3.2484,3.2361,3.236,3.2359,3.2358,0,0,3.2462,3.2449,3.2459,3.2458,3.2453,3.2467,3.2492,3.25,3.2508,3.2512,3.253,3.2551,3.2528,3.2531,3.2514,3.2534,3.259,3.2506,3.2505,3.2519,3.2644,3.2661,3.2671,3.2574,3.2576,3.2577,3.2643,0,3.2533,3.2574,3.2552,3.2596,3.2611,3.2576,3.2598,3.2596,3.2587,3.2598,3.2588,3.2602,3.2571,3.2573,3.2591,3.258,3.2615,3.2575,3.259,3.2591,3.2589,3.2683,3.2701,3.2763,3.2652,3.2653,3.2654,0,3.2621,3.2626,3.2671,3.2661,3.2667,3.2686,3.2691,3.2703,3.2701,3.2692,3.2696,3.2674,3.2697,3.266,3.2691,3.2664,3.267,3.2665,3.2667,3.2665,3.2624,3.2681,3.2783,3.2791,3.2667,3.2666,3.2665,0,3.2694,3.2713,3.2741,3.2742,3.2732,3.2746,3.2743,3.2738,3.2744,3.2749,3.2752,3.276,3.2764,3.277,3.275,3.2726,3.2782,3.2745,3.2774,3.2775,3.2786,3.2785,3.2887,3.2794,3.2794,3.2794,3.2794,0,3.2774,3.2802,3.2773,3.2791,3.2821,3.2796,3.2827,3.282,3.2816,3.2831,3.2802,3.2817,3.2791,3.2803,3.2788,3.2814,3.2817,3.2809,3.2804,3.281,3.2811,3.2811,3.2805,3.2796,3.2796,3.2795,3.2795,0,3.286,3.2842,3.287,3.2858,3.2856,3.2878,3.2868,3.2883,3.2871,3.289,3.2893,3.2875,3.2888,3.2869,3.288,3.287,3.2905,3.2895,3.2905,3.2901,3.2931,3.2927,3.3035,3.3047,3.2949,3.295,3.295,0,3.291,3.2931,3.2921,3.2928,3.2926,3.2939,3.2944,3.2921,3.2928,3.2926,3.2941,3.2951,3.2957,3.2979,3.2966,3.2974,3.2962,3.3,3.2963,3.2968,3.296,3.2958,3.2958,3.3006,3.3007,3.3008,3.3009,0,3.3001,3.2991,3.3,3.3005,3.3012,3.3016,3.3017,3.3025,3.3,3.3009,3.3021,3.3026,3.3036,3.3046,3.3051,3.3047,3.3023,3.3021,3.3028,3.3032,3.3036,3.3032,3.2922,3.3018,3.3017,3.3017,3.3016,3.3016,3.3069,3.3085,3.3079,3.3089,3.3088,3.3089,3.3102,3.3092,3.3101,3.3107,3.3094,3.3108,3.3105,3.3108,3.3107,3.3118,3.3101,3.3112,3.3114,3.3116,3.312,3.3037,3.3119,3.3119,3.3118,3.3118,3.3118,0,3.3156,3.3151,3.316,3.3162,3.317,3.3148,3.3148,3.3156,3.3169,3.3168,3.3174,3.3187,3.3196,3.3185,3.3191,3.3202,3.3192,3.3205,3.3202,3.3201,3.3135,3.3127,3.3213,3.3213,3.3213,3.3213,3.3213,3.3213,3.3202,3.3226,3.3216,3.3239,3.3234,3.3247,3.3249,3.325,3.3248,3.3263,3.327,3.3263,3.3257,3.3263,3.327,3.3266,3.3269,3.3285,3.3278,3.3216,3.3206,3.3197,3.3189,3.3287,3.3287,3.3342,3.3343,3.3343]}]]